{"data":{"norad_id":58636,"epoch":"2026-05-24T21:42:45.839808Z","epoch_age_seconds":90123,"freshness":"FRESH","line1":"1 58636U 23203U   26144.90469722 -.00000395  00000+0 -48181-5 0  9999","line2":"2 58636  43.0042 357.0055 0001025 277.3944  82.6791 15.27589436136443","mean_motion":15.27589436,"eccentricity":0.0001025,"inclination_deg":43.0042,"raan_deg":357.0055,"arg_perigee_deg":277.3944,"mean_anomaly_deg":82.6791,"bstar":-4.8181e-6,"rev_number":13644,"period_min":94.266166423005,"perigee_km":482.31757272777,"apogee_km":483.72411008526,"semimajor_km":6861.1578414065,"source":"CELESTRAK","updated_at":"2026-05-25T13:38:18.708738Z"}}